Wind_Speed
26 26 26 25 25 25 25 25 24 24 24 24 24 24 24 24 24 24 23 23 22 21 20 20 19 19 18 18 17 18 18 18 18 18 18 19 20 20 21 22 22 23 24 24 25 25 25 26 27 27 27 27 27 27 27 27 27 27 27 26 27 27 26 26 26 25 24 24 24 23 22 21 21 20 17 17 18 16 16 18 16 15 16 16 15 16 15 14
27 27 27 27 27 26 26 26 26 26 25 25 25 25 25 24 24 23 22 22 21 21 20 20 20 19 19 19 19 19 20 20 21 21 21 21 22 23 24 24 25 26 26 27 27 28 28 28 29 29 29 29 30 30 29 29 29 28 28 27 28 29 27 28 28 27 26 25 25 24 23 22 22 23 21 19 19 18 18 20 17 15 17 17 16 17 17 15
27 27 26 27 26 26 26 26 26 26 25 25 25 24 24 23 23 22 22 22 22 22 22 21 21 21 21 21 21 22 22 23 23 24 24 25 25 26 27 27 28 29 29 30 30 30 30 30 30 31 31 31 31 31 31 31 31 30 29 28 29 30 28 29 30 28 28 26 26 26 25 24 25 24 22 22 21 20 22 23 19 16 18 18 18 18 19 18
26 26 26 26 26 26 26 26 26 25 25 25 25 24 24 24 24 24 24 24 24 24 24 24 24 24 24 24 24 24 25 26 26 26 27 28 28 29 30 30 31 31 32 32 33 32 32 32 32 32 31 32 32 32 32 32 32 30 29 29 30 31 28 30 31 29 29 28 27 27 27 26 26 26 24 24 22 19 25 27 21 18 19 20 19 19 20 20
29 29 28 28 28 28 27 27 27 27 27 27 27 27 27 27 27 27 27 27 27 27 28 27 27 27 27 27 27 27 28 29 29 29 29 30 31 32 32 33 33 34 34 34 35 34 34 33 33 32 31 32 32 32 32 33 33 29 28 30 31 32 29 30 32 31 30 29 28 29 29 28 28 27 26 26 22 19 27 30 25 21 20 21 20 20 20 22
32 32 32 31 31 31 31 31 30 31 30 30 30 30 30 30 30 30 30 31 30 31 31 31 31 30 30 30 30 30 30 31 32 31 32 33 33 34 34 34 35 35 35 35 35 35 34 33 32 31 30 30 31 31 32 34 34 30 28 30 32 34 31 29 33 32 31 30 30 31 30 29 29 27 27 27 23 23 29 32 29 25 22 22 22 22 22 23
36 36 35 35 35 35 34 34 34 34 34 34 34 34 34 33 34 33 33 34 33 34 34 34 34 33 33 32 32 32 31 34 36 34 34 35 35 35 35 35 35 35 35 34 34 34 33 31 30 31 30 29 30 30 32 34 34 31 28 29 32 34 32 30 32 32 33 32 32 33 30 31 31 28 26 25 24 28 31 32 31 28 25 24 23 24 25 25
39 39 38 38 38 38 38 37 37 37 37 37 37 37 37 37 37 37 37 36 36 37 36 37 36 36 36 34 34 32 31 35 38 36 35 35 35 35 35 35 35 34 34 33 32 31 31 31 31 32 31 30 30 30 32 34 33 32 30 30 31 33 32 31 31 31 33 33 33 34 32 31 31 29 25 21 26 32 32 32 32 30 28 25 25 26 27 26
41 41 41 40 40 40 40 40 39 39 39 39 39 39 39 39 39 39 39 38 38 38 38 39 37 37 36 35 34 30 29 37 38 36 35 35 35 34 34 34 33 32 32 31 31 31 31 33 34 34 33 32 31 30 32 34 33 33 32 30 30 31 31 31 31 30 32 33 34 36 34 32 31 30 23 18 28 34 32 32 32 31 29 28 28 29 29 28
40 40 40 40 40 40 40 40 40 40 40 40 40 40 40 39 39 39 39 39 38 38 38 38 37 37 36 34 33 26 28 37 36 34 35 34 34 33 32 32 32 32 32 31 31 32 33 35 35 36 36 34 32 32 33 35 34 34 33 31 29 30 29 29 29 29 32 34 35 39 38 32 29 28 21 17 30 35 33 33 33 33 32 32 32 31 31 30
37 37 37 37 38 38 38 38 38 38 38 38 38 38 38 38 37 37 37 37 37 36 37 37 37 36 35 33 29 25 30 35 33 33 34 34 34 33 32 32 32 32 32 32 33 34 35 36 37 37 37 36 34 34 35 35 36 35 35 33 30 31 29 25 27 28 31 35 35 40 42 33 26 25 20 18 30 36 36 34 33 35 35 35 35 33 33 31
36 36 36 36 36 36 36 36 35 36 36 36 37 37 37 36 36 36 36 36 36 36 36 37 37 37 37 33 28 29 32 33 33 35 36 36 36 34 34 33 33 33 33 33 35 36 37 38 40 40 40 40 37 36 37 36 37 36 36 36 31 32 29 22 26 29 32 37 36 41 46 36 25 22 21 22 31 36 37 35 33 36 36 37 37 37 36 34
37 37 37 37 37 36 36 36 36 36 36 36 37 37 38 37 37 37 38 38 38 38 39 40 41 41 41 35 30 33 35 34 35 36 38 39 37 35 35 35 35 35 35 36 38 39 40 41 43 43 42 42 38 38 39 39 40 37 38 41 35 35 29 20 27 31 33 38 38 42 48 41 27 21 22 25 31 36 37 35 34 35 36 38 38 39 38 37
40 40 39 39 39 39 39 39 39 38 38 39 39 40 40 40 40 40 41 41 41 42 42 43 44 44 45 38 33 36 37 36 37 38 40 40 37 36 36 36 37 37 38 39 40 41 42 43 45 44 42 41 39 39 41 42 42 39 40 43 39 40 34 24 29 33 33 37 38 43 49 46 33 23 21 27 32 34 37 35 34 35 36 37 38 39 39 39
43 42 42 42 42 42 41 41 41 41 41 41 42 42 43 43 42 42 43 43 43 44 44 45 46 46 47 41 36 37 37 38 40 41 41 40 38 38 38 39 39 39 40 41 41 41 42 44 45 45 43 41 40 41 43 45 42 39 42 43 40 44 43 34 32 32 33 36 39 44 49 49 41 28 22 28 33 34 36 35 34 35 35 36 37 38 39 39
44 44 44 44 44 43 43 43 43 43 43 43 44 44 44 45 45 44 45 45 46 46 46 47 47 48 49 43 37 38 38 39 41 42 41 40 39 39 39 40 40 41 42 41 42 42 43 45 46 46 45 42 40 42 46 48 43 39 43 47 45 46 48 44 36 31 33 38 42 46 50 51 46 35 27 28 33 35 37 35 33 33 34 35 36 37 38 38
45 45 45 45 45 45 45 45 45 45 45 45 45 46 46 47 47 47 47 46 47 48 48 49 47 49 50 44 40 38 38 40 42 41 41 40 39 39 39 41 41 42 43 43 43 43 44 47 48 48 46 42 39 42 48 49 45 42 45 49 50 49 49 48 42 34 34 41 46 49 52 53 48 42 35 31 32 36 37 35 33 32 32 32 33 34 36 37
46 46 46 46 46 46 46 46 46 46 46 47 47 47 48 48 48 48 48 48 48 49 50 49 49 51 50 45 43 40 39 41 42 41 39 39 38 39 41 42 43 44 45 45 45 45 47 49 50 50 47 41 38 43 49 49 47 46 48 50 51 50 49 49 45 39 37 43 49 52 55 54 51 47 42 36 34 37 37 35 33 32 31 31 31 32 33 35
47 47 47 47 47 47 47 47 47 47 47 48 48 48 48 49 50 50 49 49 49 50 51 51 50 52 52 47 46 45 43 43 43 42 40 39 40 41 44 45 46 48 49 48 47 48 50 51 52 52 46 40 39 44 49 49 48 50 51 51 52 52 51 48 46 42 41 47 51 53 54 54 53 51 47 41 38 38 37 34 33 32 32 32 33 32 33 34
48 49 49 49 48 48 49 48 48 48 48 48 49 49 49 50 51 51 51 52 52 52 54 54 54 54 53 51 49 49 48 47 45 43 41 41 42 44 47 48 49 51 51 50 50 52 52 54 55 51 44 41 42 46 49 49 50 51 52 53 53 53 52 47 45 42 43 51 53 52 53 52 51 50 47 44 42 40 35 33 34 34 35 36 35 33 33 35
50 50 51 51 50 51 51 50 50 50 50 50 50 51 52 52 53 54 55 55 55 56 56 56 57 56 53 53 53 53 52 50 47 44 44 43 45 47 48 49 50 51 49 49 51 51 52 55 54 47 42 43 46 48 50 50 50 51 52 53 53 53 52 48 47 45 46 53 54 54 55 53 50 50 48 45 44 41 37 35 34 35 38 39 37 35 34 34
52 53 53 53 53 53 53 53 53 53 53 53 53 54 54 55 56 57 59 59 58 58 58 57 58 57 55 55 55 56 56 53 49 47 47 46 47 48 49 49 49 48 47 48 48 48 52 54 49 42 43 46 48 48 49 49 50 51 51 52 53 52 51 51 50 49 51 55 56 56 58 55 52 51 48 45 43 40 40 39 36 36 40 41 39 36 33 33
54 54 55 55 54 55 55 55 55 55 56 56 56 56 57 58 59 60 62 62 60 59 58 58 58 59 58 58 58 58 58 54 51 50 49 49 49 48 49 49 47 48 48 46 45 48 53 52 44 42 46 48 48 47 47 48 49 49 49 51 53 50 51 54 53 52 53 56 56 56 57 57 55 52 49 45 41 38 38 40 39 37 38 38 38 37 35 33
56 56 56 56 56 56 56 57 57 57 57 57 58 58 58 59 60 61 63 64 64 61 59 58 59 60 60 60 60 59 58 56 54 52 50 50 50 48 49 48 49 50 47 45 45 50 54 50 44 45 47 48 48 47 46 47 48 49 49 50 51 49 51 54 54 54 55 56 55 55 57 56 54 54 49 44 40 38 38 40 41 39 37 37 36 36 37 37
57 57 57 57 57 57 57 58 58 58 58 58 59 59 59 59 60 61 63 65 66 63 61 60 60 61 60 60 59 58 58 56 54 53 51 50 49 49 49 49 51 49 46 45 48 53 54 48 45 48 49 48 49 49 45 44 47 50 49 47 47 49 52 53 54 55 57 56 55 55 57 53 52 55 50 44 42 41 41 42 41 38 37 38 37 34 36 37
58 57 57 57 57 58 58 58 58 58 59 59 60 60 60 60 60 61 62 65 67 64 64 64 62 60 59 58 57 57 57 56 53 52 51 49 48 49 51 51 51 49 47 47 51 56 53 46 45 49 50 49 51 51 45 42 48 52 49 46 47 50 52 52 53 55 57 57 56 57 59 55 53 55 52 48 47 46 45 43 40 37 35 39 40 35 34 36
57 57 57 58 58 58 58 58 58 58 58 59 60 60 61 61 61 61 61 64 67 65 66 68 64 60 58 56 56 56 56 55 53 52 50 49 49 50 52 52 50 50 49 50 54 56 51 46 47 48 49 51 52 49 44 44 50 52 49 48 49 51 52 53 54 56 57 57 57 58 61 60 55 54 55 54 54 53 50 45 41 38 35 35 37 37 34 33
56 57 57 57 57 57 57 57 57 57 58 58 58 59 60 60 61 60 60 63 65 64 65 67 64 60 56 55 55 54 55 54 53 53 51 51 51 52 53 53 52 52 52 53 56 55 51 49 49 48 50 51 50 48 46 48 51 51 51 52 52 52 53 53 54 56 57 57 58 59 61 61 56 54 58 60 59 58 54 47 42 41 39 34 33 38 39 36
55 55 55 55 55 55 54 55 56 56 56 56 55 56 57 58 58 58 59 63 64 64 64 63 62 61 58 56 55 54 55 55 54 55 54 53 54 54 55 55 55 56 55 56 57 55 53 52 52 52 52 50 48 48 49 50 50 51 52 54 54 54 54 54 55 56 58 58 60 61 61 61 58 55 58 61 62 62 60 52 46 45 46 42 36 38 42 42
53 53 54 55 55 54 53 54 55 55 54 54 54 54 54 55 56 56 60 64 64 64 63 61 62 62 60 58 58 57 57 57 56 56 55 55 56 56 57 57 57 58 57 58 58 56 54 54 54 55 53 50 49 50 50 50 51 51 52 53 54 55 55 56 57 58 60 61 60 61 60 59 60 58 59 62 64 66 64 59 54 51 51 51 46 41 41 44
50 51 52 54 55 55 54 53 54 55 55 55 55 54 54 55 55 58 64 65 63 63 61 61 62 62 61 60 60 60 60 60 59 58 57 57 57 58 59 59 59 59 60 61 59 57 56 56 56 55 54 53 52 51 50 51 51 51 52 53 54 55 55 57 59 60 62 61 59 60 60 59 62 63 62 62 65 68 67 64 61 59 57 56 55 49 45 45
51 52 54 54 54 55 55 53 54 55 55 56 56 56 56 57 58 61 65 65 64 65 62 61 62 61 61 60 59 59 60 60 60 60 59 58 58 58 59 60 60 61 62 62 61 60 60 59 58 57 56 55 54 55 54 54 53 52 52 53 55 56 57 60 61 61 63 62 60 61 62 63 66 66 64 63 64 66 68 68 67 65 63 61 59 57 55 52
55 56 57 57 57 58 58 58 57 56 55 53 54 56 57 59 60 62 63 62 63 65 63 62 64 63 64 63 62 62 62 62 61 61 61 61 59 58 57 58 59 60 62 62 62 63 63 62 61 60 59 58 58 59 58 58 56 56 56 56 56 57 59 62 62 62 64 63 61 61 63 68 70 68 67 66 64 65 67 68 68 68 67 64 61 61 62 61
60 60 60 61 61 61 62 63 62 61 59 54 53 54 57 61 63 62 61 62 62 62 61 63 64 65 66 67 67 66 65 64 63 63 63 63 62 61 60 59 59 59 61 62 64 66 67 66 64 62 62 62 62 62 61 61 61 62 62 61 61 62 61 61 60 62 65 64 64 65 68 72 71 68 68 68 66 67 68 68 67 68 67 64 62 63 64 63
65 64 64 64 64 63 64 64 64 64 62 59 56 56 59 64 66 63 62 63 62 61 59 60 62 64 66 67 67 67 66 66 65 64 63 64 64 64 64 63 62 61 61 62 63 64 66 67 66 66 67 65 65 65 65 64 65 65 65 65 66 64 61 61 62 63 65 67 69 71 73 75 71 68 67 68 69 69 69 68 67 67 66 63 61 62 62 60
70 69 68 67 67 65 65 66 66 64 64 62 62 65 68 70 68 66 65 65 64 62 60 58 58 60 62 63 63 63 64 65 65 64 64 65 65 65 64 64 63 63 63 64 63 63 65 67 66 66 67 67 67 68 68 68 68 68 68 67 65 64 63 65 68 66 65 69 71 72 75 75 73 72 70 67 67 68 67 67 67 66 66 64 62 61 59 57
71 71 71 70 69 67 67 68 67 66 66 67 69 73 75 74 72 71 70 69 69 69 68 66 64 63 63 63 63 63 64 65 66 67 68 68 69 68 67 66 66 66 65 65 64 66 68 69 68 68 69 71 71 71 72 72 71 69 66 63 60 62 63 64 67 69 68 71 74 73 74 72 71 75 75 71 67 66 66 66 66 66 66 64 62 61 60 59
70 71 71 70 68 68 68 69 69 68 68 70 74 77 77 76 75 73 71 70 71 73 74 74 74 73 71 70 70 70 70 71 71 72 72 72 73 72 71 70 70 69 67 65 64 66 65 65 66 68 70 72 71 70 71 71 68 64 59 56 55 56 58 59 63 66 68 71 74 73 72 71 70 72 73 71 67 65 65 66 68 68 67 65 63 62 60 58
71 72 71 69 68 68 69 69 70 70 71 74 77 79 79 77 75 73 71 70 71 73 75 75 75 76 76 76 76 76 75 75 75 75 75 75 75 75 73 71 70 68 65 62 62 61 59 56 58 61 61 64 65 66 68 66 61 57 54 52 52 53 55 56 58 61 63 68 71 71 72 71 67 63 63 62 62 64 66 68 69 69 69 67 65 63 60 55
72 73 72 70 69 68 68 69 70 71 74 77 78 78 78 77 75 73 70 70 70 72 74 74 74 74 74 75 75 76 77 77 77 77 76 76 76 76 73 70 68 65 64 64 63 61 59 59 61 62 62 65 65 64 65 65 62 60 57 53 51 51 53 57 61 59 61 66 69 71 73 71 63 55 54 55 56 61 65 67 70 70 69 69 67 62 57 53
73 73 71 70 69 68 67 69 70 72 74 75 76 77 77 75 74 72 70 69 70 71 72 73 73 73 73 73 72 72 74 75 75 76 77 77 77 76 74 69 66 65 67 70 70 69 68 71 75 76 77 78 75 71 71 72 71 70 70 66 62 59 59 67 73 67 65 71 74 75 80 79 66 53 51 52 51 55 61 64 67 67 65 65 64 59 54 50
73 72 71 71 70 69 69 70 71 72 74 75 74 73 73 72 71 71 70 70 70 71 71 72 71 71 71 71 71 71 72 74 74 75 77 78 78 77 76 72 69 68 70 73 74 75 76 80 84 86 86 85 84 81 80 80 79 78 80 79 76 74 74 80 85 80 78 82 84 86 91 90 74 55 49 51 49 51 57 59 61 61 59 61 60 57 53 52
74 73 73 73 72 71 72 73 73 73 74 73 71 71 72 71 71 70 70 71 71 71 71 71 71 70 70 70 70 70 71 74 75 75 76 77 77 76 74 73 73 73 73 74 75 75 78 81 84 85 86 86 87 87 85 85 85 84 85 83 81 81 82 84 86 84 83 85 86 88 92 93 84 68 60 59 55 52 54 56 58 58 57 60 61 60 59 60
76 75 74 74 74 74 75 76 75 74 73 71 71 71 72 72 72 71 71 71 72 72 72 72 71 71 71 70 70 71 71 74 76 75 75 76 76 74 72 72 74 75 76 76 76 77 79 81 80 80 82 84 86 87 87 87 85 85 84 83 81 82 81 82 82 80 80 82 83 84 87 89 87 80 76 73 68 63 61 61 63 62 62 64 67 68 70 70
76 76 75 76 76 76 77 76 76 76 75 74 73 73 72 72 72 70 70 71 71 72 72 72 72 72 71 71 72 73 73 74 76 76 75 75 75 73 72 72 73 74 76 76 77 78 80 80 79 80 82 84 86 86 85 83 83 83 84 82 82 81 80 81 81 79 80 82 82 83 85 84 81 77 77 76 74 71 69 71 73 72 72 73 72 73 75 75
74 75 75 75 76 77 77 76 76 76 76 75 75 74 73 73 72 70 70 71 72 72 72 73 72 72 72 72 73 74 74 73 75 77 76 76 75 74 74 74 74 75 76 76 76 77 76 75 76 78 79 81 83 83 81 80 81 83 84 83 83 82 82 83 82 80 80 81 80 79 79 78 76 72 71 69 67 66 67 70 73 71 69 70 70 72 75 77
73 73 73 74 75 76 76 75 76 76 75 75 76 76 75 74 73 71 71 71 71 71 71 72 72 72 73 73 73 75 75 74 75 76 76 76 76 75 75 75 76 76 76 76 77 76 75 75 75 76 77 77 79 80 79 78 78 78 78 78 78 78 80 81 82 82 81 79 80 79 77 77 74 69 66 63 60 59 59 61 64 62 61 63 66 68 72 77
73 73 73 74 75 74 74 74 74 74 74 74 74 75 74 74 74 74 73 72 72 71 71 72 73 72 72 72 73 74 74 73 73 73 73 74 74 74 74 73 74 75 75 76 77 77 77 78 75 75 77 76 75 75 75 75 74 73 72 72 73 74 75 77 80 81 78 77 78 77 74 73 70 64 62 60 56 53 53 55 58 60 63 67 68 68 69 73
73 72 72 74 74 72 73 73 73 73 73 73 74 74 73 72 73 72 72 72 72 72 72 72 72 71 71 70 71 71 72 72 72 73 73 73 73 72 72 71 71 72 71 71 73 73 75 77 75 75 76 75 73 72 72 70 70 70 70 71 71 71 72 74 75 72 70 71 71 70 70 70 66 61 60 59 56 54 55 59 62 64 69 72 73 72 70 70
72 71 71 72 72 70 71 71 71 71 72 71 72 72 71 70 70 70 69 70 70 70 70 70 71 71 69 69 69 70 70 70 71 71 71 70 69 68 67 66 65 65 64 63 66 67 67 68 69 69 71 72 70 70 70 70 69 70 70 69 68 69 71 73 71 68 68 70 70 70 73 73 70 68 68 66 64 63 63 64 64 64 66 69 70 69 68 68
70 71 71 71 71 70 70 70 70 70 70 69 70 70 69 68 69 70 69 68 68 67 67 68 69 70 69 68 68 69 69 68 68 68 68 67 67 66 64 62 60 60 60 59 61 63 63 63 62 62 67 70 68 67 67 68 69 71 71 70 69 70 72 73 72 72 72 72 71 70 73 74 74 73 72 70 70 69 67 66 64 63 63 62 63 64 66 69
70 71 71 71 71 70 70 70 70 70 71 69 69 70 69 68 69 69 69 69 68 67 67 67 68 70 70 68 67 68 68 69 69 69 69 68 68 67 66 65 63 63 64 63 63 64 65 68 68 69 73 76 73 69 67 66 68 68 67 67 67 69 71 72 72 71 70 69 69 72 77 81 82 79 77 76 73 71 69 68 67 66 66 65 65 66 68 70
Wind_Direction
257 259 260 261 262 264 265 266 267 268 270 271 273 275 276 278 279 281 282 283 284 284 284 284 284 284 283 282 282 283 284 285 286 287 290 293 295 297 298 300 301 302 304 304 305 306 307 307 306 306 306 305 305 304 304 304 304 305 305 304 301 301 303 301 299 299 299 299 300 299 299 300 298 299 300 298 297 299 295 293 297 298 297 301 305 307 308 310
257 258 260 261 262 264 265 266 267 268 269 270 272 273 274 276 277 278 280 281 282 283 284 284 284 283 282 281 282 283 284 285 286 287 290 292 294 295 296 298 299 300 302 302 302 304 305 304 304 304 304 303 303 303 302 301 301 302 303 302 297 298 301 298 296 298 297 296 295 294 295 294 292 294 296 294 294 297 291 285 291 292 290 295 298 299 301 302
256 257 258 259 261 262 264 265 266 267 268 269 270 271 273 274 275 277 278 279 281 282 283 284 284 284 283 283 283 283 284 285 285 287 289 290 292 293 295 296 298 299 300 300 300 302 302 302 302 302 301 301 301 301 300 298 298 300 301 298 294 296 298 295 294 296 295 294 292 292 291 290 288 289 291 290 294 297 285 281 288 288 285 289 292 293 295 296
255 256 257 259 260 261 263 264 265 266 267 268 269 270 271 272 274 275 277 278 279 280 282 283 283 284 284 284 284 285 286 286 285 287 287 288 290 292 293 295 296 297 298 298 299 299 299 300 300 299 299 299 299 299 297 294 296 299 299 295 291 293 294 293 293 294 293 292 291 290 289 288 286 287 287 287 294 292 280 280 286 283 281 285 287 287 289 290
257 257 258 259 260 261 262 263 264 265 266 267 268 269 270 271 272 273 275 276 277 279 279 280 281 282 282 283 284 285 286 286 285 285 285 286 288 290 291 292 293 294 295 296 296 297 297 297 297 297 296 297 297 298 295 293 295 298 297 293 290 290 292 292 291 292 291 291 290 287 287 286 284 285 286 288 293 283 275 279 282 281 280 282 283 282 283 285
258 259 260 260 261 262 262 263 264 265 266 266 267 268 269 269 270 271 273 273 275 276 276 277 278 279 279 280 282 283 284 285 283 282 284 285 287 288 288 289 290 291 292 293 294 295 295 295 296 294 294 296 296 296 295 293 295 298 296 292 290 289 292 291 289 291 291 290 289 285 286 285 283 285 287 291 290 273 270 277 282 283 280 279 279 279 279 280
260 260 261 262 262 263 263 264 265 266 267 267 268 269 269 270 270 271 271 272 273 273 274 274 275 276 276 277 278 280 282 283 281 281 283 284 285 286 287 287 288 289 290 291 292 293 294 295 294 292 294 296 295 296 295 294 295 298 296 291 289 290 292 289 288 291 291 290 288 285 285 284 284 287 290 294 287 272 271 278 282 282 280 280 278 276 276 277
261 262 262 263 263 264 264 265 266 267 267 268 269 269 270 271 271 272 272 272 272 273 273 273 274 274 274 275 276 278 281 280 279 280 282 283 284 284 285 286 286 288 289 290 291 292 293 293 292 292 295 295 294 295 294 293 295 297 295 291 290 291 290 288 289 290 289 289 287 284 284 283 284 289 296 295 281 274 275 278 279 280 280 278 273 271 273 274
261 262 263 263 264 265 265 266 267 267 268 269 269 269 270 271 271 272 272 272 272 273 273 273 273 273 273 274 274 278 279 276 277 280 281 282 282 282 284 285 286 288 288 289 290 291 291 291 291 292 293 292 293 293 292 292 294 295 293 292 293 290 288 288 289 289 287 285 284 282 280 280 282 291 303 292 275 275 276 278 278 278 277 274 271 270 271 272
262 262 263 263 264 265 266 266 267 268 268 269 269 270 270 270 270 271 271 271 272 272 272 273 273 273 274 274 275 280 277 274 278 281 282 282 281 282 283 285 286 287 288 289 290 290 289 289 290 291 290 290 291 291 290 291 292 292 292 293 294 290 288 289 289 287 284 281 280 279 277 279 285 296 308 287 273 275 276 277 279 279 278 275 273 272 272 272
261 262 263 263 264 265 265 266 267 268 269 269 270 270 270 270 271 271 272 272 272 272 273 273 273 274 274 274 278 279 274 276 281 282 281 281 281 283 285 286 287 287 288 289 288 288 288 289 289 289 289 289 290 290 289 290 290 290 290 291 292 290 290 292 288 283 279 277 277 278 278 280 289 300 306 282 271 273 274 276 277 278 278 277 276 274 272 271
261 262 263 263 264 264 265 266 267 267 268 269 270 271 271 271 272 272 273 273 273 274 274 275 275 275 274 276 279 277 274 278 281 281 281 280 282 285 286 287 287 286 287 288 287 287 288 288 289 288 289 289 290 289 288 288 287 288 289 289 288 288 290 293 284 277 273 273 274 277 279 282 290 298 297 279 271 273 275 276 275 275 275 276 277 277 274 272
261 262 263 264 264 265 265 266 267 267 268 269 270 271 271 271 272 272 273 273 274 274 274 275 275 276 275 277 279 277 277 279 279 279 279 280 283 285 285 285 285 286 286 286 286 287 287 288 288 287 288 289 290 289 289 288 287 288 287 286 287 285 285 285 275 270 270 273 277 280 282 285 288 289 286 277 273 275 277 277 275 273 273 274 275 276 276 275
262 263 264 264 265 266 266 267 267 268 268 269 270 270 271 271 271 272 272 273 274 274 274 275 275 276 276 277 277 277 279 279 277 276 277 280 283 283 283 283 284 285 285 284 285 285 286 286 286 286 286 288 289 290 291 289 288 289 287 285 287 283 279 271 265 267 272 277 281 282 283 285 285 281 280 276 274 276 278 278 277 274 273 274 275 276 277 278
264 264 264 265 265 266 267 267 268 268 268 268 269 269 270 270 271 271 271 272 273 273 274 274 275 276 276 276 277 277 277 277 276 276 278 279 279 280 281 282 282 283 282 282 283 283 284 284 283 284 285 286 289 291 290 288 289 292 290 286 285 281 277 273 268 273 279 280 279 279 280 282 282 280 275 272 274 276 277 278 279 278 276 274 275 277 279 281
264 264 265 265 266 266 267 267 268 268 268 268 268 269 270 270 271 270 271 271 272 273 273 274 275 275 276 276 277 276 276 276 276 276 277 278 278 279 280 281 282 281 281 281 281 281 281 281 281 281 283 284 288 291 289 288 290 293 289 286 284 281 281 281 278 279 281 280 277 276 277 278 281 282 274 267 271 274 276 278 280 280 279 278 277 277 279 280
264 265 265 265 266 266 266 267 267 268 268 268 269 269 270 270 270 270 271 271 272 272 273 273 275 275 275 278 277 275 275 275 275 275 276 277 279 280 280 280 281 280 280 280 279 280 280 279 280 280 281 284 289 290 288 288 292 291 287 286 286 286 287 287 287 286 283 279 277 276 276 277 280 281 276 268 268 272 276 278 279 280 281 281 279 277 277 277
264 264 265 265 266 266 266 266 267 268 268 269 269 270 270 270 271 271 271 271 272 272 273 274 275 275 276 277 277 275 274 273 273 274 275 277 278 279 280 280 279 279 279 279 279 279 278 278 278 278 280 286 290 288 285 287 290 288 286 285 286 288 288 290 292 292 286 279 276 276 276 278 280 279 276 272 269 273 278 279 278 279 280 279 277 275 275 274
264 264 265 265 265 266 266 266 266 267 268 268 269 269 269 270 271 271 272 272 272 273 274 274 274 275 277 277 277 275 273 271 271 272 273 275 277 278 278 278 278 278 278 278 279 277 276 276 276 277 281 288 288 284 282 284 285 285 285 285 286 287 288 290 294 293 289 283 279 278 279 281 281 280 280 279 276 276 280 281 279 278 276 275 274 275 277 276
264 264 264 265 265 266 266 266 266 266 267 267 268 268 268 269 270 271 271 272 272 273 274 275 275 275 277 278 277 275 273 270 269 271 272 274 274 275 275 277 278 277 277 277 276 274 274 275 274 277 284 287 283 279 279 280 281 282 283 284 285 286 288 291 292 292 291 287 285 284 284 284 285 285 285 284 281 280 281 280 278 277 276 274 274 276 278 278
264 264 265 265 265 266 266 266 266 266 266 266 267 268 268 268 269 270 271 271 272 273 274 275 276 277 277 277 276 275 273 272 271 272 272 273 273 274 276 277 276 276 276 274 273 274 275 274 275 280 284 280 276 275 277 278 279 280 281 283 284 286 288 290 290 291 289 287 289 290 288 288 288 288 287 286 286 286 285 281 278 277 276 275 276 277 277 276
264 264 265 265 266 266 267 267 267 267 267 267 267 268 269 270 271 272 272 272 272 273 274 275 277 277 277 276 275 275 274 274 275 274 274 274 274 276 276 275 274 275 274 272 273 276 275 275 278 281 277 273 273 274 275 276 277 279 281 283 284 286 288 288 288 288 287 287 289 290 290 290 289 288 288 289 289 291 290 287 282 277 275 276 278 278 275 272
263 264 264 265 265 266 266 267 268 268 268 268 268 269 269 270 271 272 273 274 273 273 274 275 276 276 276 275 274 274 275 277 277 277 277 276 275 275 275 274 273 273 272 274 277 276 274 276 278 276 273 273 274 273 274 275 277 279 281 281 282 285 287 287 287 287 286 286 288 290 290 289 288 288 288 290 293 294 293 290 285 280 277 278 279 279 277 272
263 264 264 265 265 266 266 267 268 268 269 269 269 269 270 270 271 272 273 274 274 273 273 274 274 274 274 274 274 276 277 278 278 278 278 277 276 275 273 272 271 271 274 276 275 273 272 275 276 274 274 274 273 273 273 274 276 278 278 279 282 284 284 285 287 287 286 285 286 289 289 287 288 288 288 292 295 293 291 287 286 286 287 285 281 280 279 275
264 264 264 265 266 266 267 267 268 268 269 269 270 270 270 270 271 272 274 275 275 275 275 273 272 273 274 275 276 277 277 278 278 278 277 276 276 274 272 271 271 273 276 275 272 270 270 273 274 274 273 272 272 272 271 272 275 276 275 276 279 281 281 283 285 285 285 286 287 288 287 287 289 289 292 296 294 290 287 284 285 290 293 290 287 283 280 277
263 264 265 265 266 266 267 267 268 269 269 270 270 270 271 271 272 273 274 275 275 275 276 274 271 270 271 273 275 276 277 277 278 277 277 276 275 274 273 272 273 275 275 274 271 269 270 272 272 271 271 271 270 270 271 273 273 272 273 274 275 276 277 279 280 281 284 286 287 286 286 287 289 292 298 299 295 290 286 285 288 290 290 289 290 288 282 279
261 262 263 264 265 265 266 268 269 269 270 270 270 270 271 271 271 272 274 275 274 274 275 275 274 272 272 272 272 273 274 275 276 276 276 275 274 274 274 273 274 274 274 272 270 269 271 271 269 268 269 269 269 271 273 273 271 271 274 275 274 273 274 276 278 279 281 283 284 284 285 288 292 297 301 300 295 290 288 290 292 291 287 285 287 288 284 281
260 261 262 263 264 266 267 268 269 269 269 270 270 271 271 271 271 272 273 273 272 272 274 276 277 277 276 273 271 271 272 273 274 274 274 274 274 274 274 274 274 273 272 271 269 270 271 269 268 268 267 267 270 273 273 271 271 273 274 274 274 274 275 276 277 278 279 279 281 282 283 287 293 299 300 297 294 292 292 294 295 293 288 282 282 284 284 283
260 261 262 263 264 266 267 268 268 269 270 271 271 271 271 272 272 272 271 271 271 272 274 277 279 279 277 275 273 273 273 273 273 274 274 275 275 274 275 275 274 273 273 271 270 269 270 270 269 268 267 268 270 271 270 271 272 273 273 274 275 276 276 276 276 276 276 276 279 281 283 287 291 295 294 293 294 295 295 297 297 295 292 288 284 282 283 284
262 263 264 264 265 266 267 268 269 269 271 272 273 273 274 273 272 271 270 269 270 272 275 277 278 278 277 277 276 275 274 274 274 273 273 274 275 276 276 276 276 275 274 273 270 268 269 269 268 268 269 270 269 269 270 271 273 274 274 274 275 275 275 274 273 273 272 274 278 281 284 286 288 290 291 292 294 294 295 298 298 296 294 293 290 285 282 283
264 264 266 267 268 269 269 268 269 270 272 273 274 275 275 274 272 269 269 270 272 273 273 274 275 276 277 277 277 277 277 276 275 274 272 272 273 275 277 278 278 277 276 275 273 270 269 268 268 268 268 269 269 270 272 273 274 275 274 274 273 273 273 272 272 271 271 275 280 281 282 281 282 286 288 290 292 293 296 297 296 295 295 293 292 290 285 282
262 263 265 266 267 269 269 268 268 270 272 273 274 274 274 273 271 269 271 273 274 273 272 273 273 274 275 275 276 278 278 278 278 276 274 273 273 274 276 278 278 278 278 277 275 272 269 268 269 269 268 269 271 272 273 274 275 275 273 273 272 272 272 271 271 271 272 276 279 279 279 277 279 283 284 284 287 291 294 294 293 293 293 292 292 292 289 285
265 264 265 265 265 266 267 267 268 269 270 270 271 271 271 270 269 270 272 273 273 274 274 273 272 273 273 274 275 277 277 278 277 277 277 277 277 276 277 277 277 278 278 277 276 275 272 270 271 273 273 272 273 275 276 277 278 278 277 276 273 273 273 271 272 273 275 277 277 275 274 275 280 284 284 284 286 287 288 289 290 291 291 292 292 291 289 287
268 267 267 267 267 267 267 268 269 269 269 268 268 267 266 267 268 270 271 272 271 272 272 272 272 272 272 273 274 276 276 276 276 277 277 278 279 279 279 277 276 276 276 276 275 275 274 272 271 273 274 272 273 276 278 279 279 279 280 278 276 276 276 275 276 277 278 277 275 272 271 274 279 282 284 285 286 286 286 286 287 288 288 290 290 288 287 287
269 269 268 268 268 268 269 269 269 270 270 269 267 265 263 265 267 268 268 268 268 268 268 269 270 271 271 272 273 274 275 276 276 276 276 276 277 278 279 278 277 277 277 276 275 275 273 271 269 270 271 271 271 272 273 275 275 276 277 276 276 278 278 277 276 276 277 275 273 272 273 275 278 279 281 283 285 285 285 286 287 288 289 289 288 286 285 286
271 270 270 269 269 269 269 269 269 269 268 268 265 264 265 267 268 267 266 265 266 267 268 268 267 269 270 270 271 272 273 274 274 274 274 275 275 276 277 278 278 278 279 279 278 276 274 273 271 270 272 273 272 272 273 274 275 276 275 275 276 276 275 275 275 275 274 271 271 271 273 276 278 278 280 281 282 283 283 285 286 287 288 288 286 286 286 286
271 271 270 270 270 271 271 270 270 269 268 267 265 266 268 269 268 267 267 266 266 267 268 269 268 268 268 267 268 270 272 272 272 273 274 275 276 277 277 278 277 277 278 278 279 278 278 278 276 274 275 276 276 276 277 278 279 279 278 277 277 275 273 273 273 273 271 270 270 269 269 272 273 276 281 281 280 281 281 281 282 282 282 282 284 285 285 286
271 271 270 270 270 270 271 271 271 271 270 268 268 268 268 268 269 269 270 269 269 269 269 270 270 270 269 268 268 269 271 271 272 273 274 275 276 277 278 278 278 279 279 279 280 281 281 280 279 277 277 277 278 278 279 280 281 282 283 282 279 275 274 272 270 270 270 269 270 269 267 267 267 274 281 281 280 281 279 277 278 278 278 279 281 282 282 282
269 270 270 270 270 270 270 270 270 270 269 268 270 271 271 271 271 271 271 271 271 271 271 271 272 271 271 271 271 271 271 271 272 273 275 275 276 277 277 278 279 279 280 280 281 281 279 276 275 277 277 277 278 279 280 282 284 284 283 280 275 272 271 269 266 267 269 269 270 269 267 265 266 273 278 277 276 277 276 276 277 277 277 278 278 279 280 279
268 269 269 269 270 270 270 269 268 268 268 269 271 273 273 273 273 273 273 273 272 271 272 272 272 272 272 272 271 271 272 272 272 273 273 273 274 275 275 276 277 277 278 278 277 278 276 272 271 273 273 271 273 276 278 280 281 280 278 274 270 268 268 268 266 266 267 269 270 270 270 268 266 270 274 275 274 274 275 276 276 277 278 277 276 276 277 276
268 268 269 269 269 269 268 268 267 267 268 269 271 272 273 273 274 275 275 274 271 270 270 270 271 271 272 272 272 273 272 272 272 271 271 271 271 272 272 272 272 271 272 273 273 274 274 272 272 273 273 272 273 274 275 276 276 275 274 272 270 269 270 272 272 270 270 272 272 274 277 275 270 268 272 276 275 273 273 273 274 276 279 281 277 273 272 272
268 269 269 268 269 269 268 267 267 268 268 269 271 272 273 273 273 273 273 273 272 270 270 269 269 270 270 271 271 270 270 269 268 268 269 270 270 270 271 271 270 269 268 269 270 271 272 273 274 274 274 274 274 274 274 274 274 273 273 273 273 272 271 273 275 275 275 276 276 276 278 277 273 270 271 271 268 266 267 268 270 273 279 284 280 271 267 268
268 268 269 269 269 269 268 268 268 269 269 271 271 271 271 271 271 271 271 271 271 270 270 270 270 269 269 268 268 267 266 266 266 266 267 268 269 269 270 271 271 271 270 269 270 271 271 272 273 274 273 273 272 272 272 272 273 274 274 276 276 275 274 275 277 278 278 277 277 277 278 278 276 274 271 267 263 262 264 267 269 271 275 280 279 273 269 270
268 268 268 268 268 268 268 269 270 270 270 270 270 269 269 269 270 270 271 270 270 269 269 269 269 269 269 269 268 267 267 267 267 267 267 268 269 271 271 269 269 270 270 271 271 271 271 271 273 274 274 273 273 273 273 273 274 275 276 276 276 276 277 277 278 280 278 278 279 279 279 281 282 280 276 273 269 266 264 264 267 267 268 273 275 273 272 272
268 267 267 267 267 267 268 269 270 270 270 270 269 269 269 269 270 270 270 269 268 269 269 268 268 268 268 268 268 268 267 268 269 269 268 268 270 270 269 268 268 269 269 270 271 271 272 272 272 273 273 274 274 275 276 276 276 275 275 275 275 276 276 277 279 279 279 280 281 280 280 284 285 283 281 280 277 273 267 265 267 268 267 270 271 270 270 271
267 267 267 267 267 267 268 269 269 269 269 270 270 269 269 270 271 270 269 268 268 269 268 268 268 268 268 268 268 267 267 267 268 269 269 269 269 269 269 268 268 268 268 269 270 271 271 271 271 272 273 274 275 276 277 277 276 275 275 275 275 275 276 277 278 277 279 282 280 279 282 284 283 282 283 282 279 277 272 269 271 273 272 272 270 268 267 267
266 266 267 267 267 267 268 268 269 270 270 270 270 270 270 270 270 269 268 268 268 268 268 268 269 269 269 269 268 268 268 268 268 268 269 269 269 268 268 269 269 268 268 269 269 270 270 269 270 271 271 272 274 275 275 274 274 275 275 275 275 275 275 275 275 276 279 279 277 279 282 282 281 281 281 281 281 279 276 271 272 273 270 266 264 263 263 263
266 266 267 267 267 267 268 268 268 269 270 270 270 270 270 270 270 270 269 269 268 268 268 269 269 269 269 270 270 270 270 269 269 269 269 270 270 270 269 268 268 268 268 268 268 269 269 269 270 271 271 272 272 273 274 274 274 274 274 275 275 276 276 275 275 276 277 276 278 281 282 279 279 280 281 282 281 277 274 271 269 266 262 261 261 262 262 263
267 267 267 267 267 268 268 268 268 268 269 269 270 270 270 270 270 270 270 270 269 269 269 270 270 270 270 270 271 271 271 271 271 271 271 272 272 272 271 270 269 269 269 269 268 268 269 271 272 272 272 272 271 272 272 272 273 274 274 275 276 276 275 275 274 274 274 275 277 279 277 276 276 277 277 276 273 270 270 270 267 262 260 261 263 263 264 265
268 267 267 268 268 268 268 269 269 269 269 269 270 270 271 271 271 270 270 270 270 270 270 270 271 271 271 271 271 271 271 271 272 273 273 273 273 273 274 274 273 273 272 270 269 270 270 271 273 273 273 272 271 271 271 272 273 273 272 271 271 272 272 271 271 271 272 272 272 272 274 275 274 274 274 273 271 271 271 270 266 261 258 259 260 261 263 266
268 268 268 268 268 268 269 269 269 269 269 270 271 272 271 271 271 271 271 271 271 271 271 271 271 272 272 272 271 271 271 271 271 271 271 270 270 271 271 272 272 272 271 268 268 269 269 269 269 269 270 271 272 274 275 274 272 269 268 268 267 267 268 268 268 269 269 269 270 270 272 274 274 274 274 275 275 273 269 267 264 261 258 257 258 261 264 267
267 267 267 267 267 267 268 268 268 269 269 269 270 270 271 270 270 271 271 271 270 271 271 272 272 272 272 272 272 271 272 272 271 271 271 270 269 269 267 267 266 265 265 264 263 264 265 267 267 267 268 269 270 271 272 271 265 262 264 266 265 263 264 266 266 265 264 265 268 270 272 274 276 274 273 275 274 271 268 265 263 261 260 260 262 264 265 266
Height
5885 5885 5886 5886 5886 5886 5887 5887 5887 5887 5887 5887 5887 5886 5886 5886 5886 5886 5885 5885 5885 5885 5885 5885 5884 5884 5884 5884 5884 5883 5883 5883 5882 5882 5882 5882 5882 5881 5881 5880 5880 5879 5879 5878 5878 5877 5877 5876 5875 5874 5874 5873 5873 5872 5871 5870 5870 5869 5868 5867 5866 5865 5865 5864 5863 5863 5862 5861 5860 5860 5859 5859 5858 5857 5858 5857 5856 5856 5855 5854 5853 5852 5851 5850 5849 5848 5848 5847
5883 5883 5884 5884 5884 5884 5885 5885 5885 5885 5885 5885 5885 5885 5884 5884 5884 5884 5884 5883 5883 5883 5883 5883 5883 5882 5882 5882 5882 5882 5881 5881 5881 5880 5880 5880 5880 5879 5879 5878 5878 5877 5877 5876 5876 5875 5875 5874 5873 5872 5871 5870 5870 5869 5868 5867 5867 5867 5866 5865 5863 5862 5863 5861 5860 5860 5860 5859 5858 5857 5857 5857 5856 5855 5855 5855 5854 5854 5853 5851 5852 5851 5850 5849 5848 5847 5846 5846
5881 5881 5882 5882 5882 5882 5882 5883 5883 5883 5883 5883 5883 5883 5883 5882 5882 5882 5882 5882 5882 5881 5881 5881 5881 5880 5880 5880 5880 5880 5879 5879 5879 5878 5878 5878 5878 5877 5877 5876 5876 5875 5875 5874 5873 5873 5873 5872 5871 5870 5869 5868 5867 5866 5865 5864 5864 5865 5864 5863 5860 5860 5861 5858 5857 5857 5856 5857 5856 5855 5855 5854 5853 5853 5853 5853 5853 5852 5849 5848 5849 5849 5848 5847 5847 5846 5845 5844
5878 5879 5879 5879 5880 5880 5880 5880 5880 5880 5880 5880 5880 5880 5880 5880 5880 5880 5880 5880 5880 5879 5879 5879 5879 5878 5878 5878 5878 5878 5877 5877 5876 5876 5876 5875 5875 5875 5874 5874 5873 5873 5872 5871 5871 5870 5870 5869 5868 5867 5866 5865 5864 5864 5862 5861 5861 5863 5862 5860 5858 5857 5858 5856 5854 5855 5853 5853 5853 5852 5851 5851 5850 5850 5851 5850 5851 5850 5845 5844 5847 5847 5846 5845 5845 5844 5843 5842
5876 5876 5876 5877 5877 5877 5877 5877 5878 5878 5878 5878 5878 5878 5878 5878 5878 5878 5878 5877 5877 5877 5877 5877 5876 5876 5876 5876 5876 5876 5875 5874 5874 5874 5873 5873 5873 5872 5872 5871 5871 5870 5869 5869 5868 5867 5867 5866 5866 5864 5863 5862 5862 5861 5860 5858 5858 5860 5860 5857 5855 5854 5856 5854 5851 5851 5851 5850 5850 5848 5848 5848 5847 5848 5848 5848 5850 5847 5842 5841 5843 5844 5844 5843 5843 5842 5841 5840
5873 5873 5873 5874 5874 5874 5875 5875 5875 5875 5875 5875 5875 5875 5875 5875 5875 5875 5875 5875 5875 5874 5874 5874 5874 5874 5874 5874 5874 5874 5873 5871 5870 5871 5871 5870 5870 5869 5868 5868 5868 5867 5866 5866 5865 5864 5864 5863 5863 5861 5861 5860 5859 5858 5857 5855 5854 5857 5857 5855 5852 5851 5853 5852 5848 5848 5847 5847 5846 5844 5845 5845 5844 5845 5846 5845 5846 5843 5839 5838 5839 5841 5841 5841 5841 5840 5839 5838
5870 5870 5870 5871 5871 5871 5872 5872 5872 5872 5872 5872 5872 5872 5872 5872 5872 5872 5872 5872 5872 5871 5871 5871 5871 5871 5871 5871 5871 5871 5872 5868 5866 5868 5868 5867 5867 5866 5865 5865 5864 5864 5864 5863 5862 5861 5860 5860 5859 5858 5858 5858 5857 5856 5853 5851 5851 5853 5854 5852 5849 5848 5849 5849 5847 5845 5843 5843 5842 5840 5841 5841 5840 5842 5843 5844 5841 5837 5836 5836 5836 5837 5838 5838 5838 5837 5836 5836
5866 5867 5867 5867 5868 5868 5868 5868 5869 5869 5869 5869 5869 5869 5869 5869 5868 5869 5868 5868 5868 5868 5868 5867 5867 5868 5867 5868 5868 5869 5870 5865 5862 5865 5865 5864 5864 5862 5862 5862 5861 5861 5860 5860 5859 5858 5857 5856 5855 5854 5855 5855 5854 5853 5851 5848 5848 5849 5850 5849 5847 5846 5845 5845 5844 5843 5841 5839 5838 5836 5838 5838 5837 5838 5841 5842 5836 5831 5833 5834 5833 5834 5835 5835 5834 5833 5833 5832
5863 5863 5864 5864 5864 5864 5865 5865 5865 5865 5865 5865 5865 5865 5865 5865 5865 5865 5865 5865 5864 5864 5864 5863 5864 5863 5864 5865 5865 5868 5867 5861 5860 5862 5862 5861 5860 5859 5859 5859 5858 5858 5857 5857 5856 5855 5854 5853 5851 5851 5851 5851 5851 5850 5848 5846 5846 5845 5845 5845 5845 5843 5842 5842 5841 5841 5837 5836 5834 5831 5833 5835 5834 5834 5838 5840 5832 5827 5830 5830 5830 5831 5831 5831 5830 5830 5830 5829
5859 5860 5860 5860 5861 5861 5861 5861 5862 5862 5862 5861 5861 5861 5861 5861 5861 5861 5861 5861 5861 5860 5860 5859 5860 5860 5861 5861 5863 5866 5862 5857 5859 5859 5858 5857 5857 5856 5856 5856 5856 5855 5854 5854 5853 5852 5851 5849 5848 5847 5846 5847 5847 5847 5845 5843 5842 5842 5841 5841 5842 5840 5840 5840 5838 5838 5834 5832 5830 5827 5827 5831 5832 5831 5835 5837 5828 5824 5826 5827 5827 5826 5827 5827 5826 5826 5826 5827
5855 5856 5856 5857 5857 5857 5857 5858 5858 5858 5858 5858 5857 5857 5857 5858 5857 5857 5857 5857 5857 5857 5856 5856 5856 5856 5857 5858 5861 5863 5858 5856 5857 5856 5855 5854 5853 5854 5854 5854 5853 5852 5851 5851 5849 5848 5847 5845 5844 5843 5842 5842 5843 5843 5841 5840 5838 5838 5837 5837 5838 5836 5837 5838 5835 5834 5830 5827 5827 5822 5820 5826 5829 5829 5832 5833 5825 5820 5822 5824 5824 5823 5823 5822 5821 5822 5822 5823
5852 5852 5852 5853 5853 5853 5854 5854 5854 5854 5854 5854 5854 5854 5854 5854 5854 5854 5853 5853 5853 5853 5853 5852 5851 5852 5852 5855 5859 5858 5855 5855 5854 5853 5851 5850 5851 5851 5851 5851 5850 5849 5849 5848 5846 5845 5843 5841 5840 5839 5838 5837 5839 5838 5837 5837 5835 5834 5833 5832 5834 5832 5833 5836 5832 5829 5826 5823 5823 5818 5812 5820 5827 5827 5828 5827 5821 5818 5818 5820 5821 5819 5819 5818 5817 5817 5817 5818
5848 5848 5849 5849 5849 5850 5850 5850 5851 5851 5851 5851 5850 5850 5850 5850 5850 5850 5850 5849 5849 5850 5849 5848 5847 5847 5847 5852 5856 5853 5852 5852 5851 5849 5847 5847 5848 5849 5848 5847 5847 5846 5845 5844 5842 5841 5839 5837 5835 5834 5834 5833 5835 5834 5832 5832 5830 5831 5829 5825 5829 5828 5829 5833 5827 5823 5823 5819 5819 5814 5806 5812 5824 5826 5825 5822 5817 5815 5814 5815 5817 5816 5815 5814 5813 5812 5812 5813
5844 5844 5845 5845 5846 5846 5846 5847 5847 5847 5847 5847 5846 5846 5846 5846 5846 5847 5846 5845 5845 5845 5845 5844 5843 5843 5843 5848 5852 5849 5849 5848 5847 5845 5843 5844 5845 5845 5844 5843 5843 5842 5841 5840 5838 5837 5835 5833 5830 5829 5830 5829 5830 5829 5828 5826 5825 5827 5824 5821 5823 5820 5822 5828 5823 5820 5821 5817 5816 5810 5801 5805 5816 5822 5822 5817 5813 5811 5810 5811 5812 5811 5811 5810 5809 5808 5807 5808
5840 5840 5841 5841 5842 5842 5842 5842 5843 5843 5843 5843 5842 5842 5841 5841 5842 5843 5841 5841 5841 5840 5840 5839 5839 5838 5837 5843 5847 5846 5845 5844 5842 5841 5840 5841 5841 5840 5840 5839 5839 5838 5836 5835 5834 5833 5830 5828 5826 5825 5825 5826 5827 5826 5823 5820 5821 5823 5818 5816 5817 5812 5813 5820 5821 5820 5819 5816 5812 5807 5799 5798 5807 5816 5819 5814 5809 5808 5805 5806 5807 5807 5807 5806 5805 5804 5804 5804
5836 5836 5836 5837 5837 5838 5838 5838 5838 5838 5838 5838 5838 5838 5837 5837 5837 5838 5837 5837 5836 5836 5835 5834 5835 5833 5831 5838 5843 5842 5841 5840 5838 5836 5836 5837 5837 5837 5836 5835 5834 5833 5831 5831 5830 5829 5827 5824 5821 5821 5821 5823 5825 5823 5817 5814 5817 5820 5814 5809 5810 5808 5807 5811 5817 5820 5818 5812 5807 5802 5796 5794 5800 5808 5813 5811 5807 5804 5802 5802 5804 5803 5802 5802 5802 5801 5800 5800
5831 5832 5832 5832 5833 5833 5833 5833 5833 5834 5834 5834 5833 5833 5833 5832 5832 5832 5832 5833 5832 5831 5830 5829 5831 5828 5827 5833 5837 5837 5837 5835 5833 5833 5832 5832 5833 5832 5831 5830 5829 5828 5827 5826 5825 5825 5823 5819 5817 5816 5817 5820 5823 5820 5812 5809 5813 5815 5810 5805 5804 5804 5803 5804 5810 5816 5815 5808 5802 5797 5792 5791 5796 5801 5804 5806 5804 5801 5799 5800 5800 5799 5799 5798 5798 5797 5796 5796
5826 5827 5827 5827 5828 5828 5828 5829 5829 5829 5829 5829 5829 5829 5828 5827 5827 5827 5827 5828 5827 5826 5825 5825 5826 5822 5823 5828 5830 5831 5832 5830 5829 5828 5828 5829 5829 5828 5827 5825 5824 5823 5822 5821 5821 5820 5817 5814 5812 5811 5813 5819 5821 5815 5807 5807 5809 5807 5805 5802 5799 5800 5800 5800 5804 5809 5808 5802 5796 5791 5787 5788 5792 5794 5797 5800 5801 5798 5797 5797 5797 5797 5796 5795 5794 5793 5793 5792
5822 5822 5822 5823 5823 5823 5823 5824 5824 5824 5824 5823 5824 5824 5823 5822 5822 5822 5822 5822 5822 5821 5820 5820 5821 5818 5819 5823 5824 5825 5825 5825 5824 5824 5825 5825 5825 5823 5821 5820 5819 5817 5816 5816 5816 5814 5811 5809 5806 5806 5812 5817 5816 5809 5804 5804 5804 5801 5799 5797 5796 5795 5795 5797 5800 5801 5800 5793 5789 5787 5784 5783 5785 5787 5791 5795 5796 5795 5795 5795 5794 5794 5793 5792 5790 5789 5789 5788
5817 5817 5817 5818 5818 5818 5818 5819 5819 5819 5819 5819 5818 5818 5818 5817 5817 5816 5816 5816 5816 5816 5815 5814 5815 5815 5815 5817 5818 5817 5817 5818 5819 5820 5821 5821 5820 5818 5816 5815 5813 5811 5811 5812 5810 5807 5806 5803 5800 5804 5811 5813 5808 5803 5801 5800 5799 5796 5794 5792 5791 5790 5790 5794 5795 5795 5794 5784 5780 5782 5780 5779 5780 5782 5786 5789 5789 5790 5793 5792 5790 5790 5788 5787 5786 5786 5786 5784
5811 5812 5812 5812 5813 5813 5813 5813 5814 5814 5814 5814 5813 5813 5812 5812 5811 5811 5810 5811 5811 5810 5810 5809 5808 5809 5812 5812 5810 5809 5809 5811 5814 5816 5816 5816 5815 5812 5811 5810 5807 5805 5806 5806 5802 5802 5801 5795 5797 5805 5808 5805 5800 5798 5796 5795 5794 5791 5790 5788 5787 5786 5786 5788 5789 5790 5788 5779 5774 5776 5773 5773 5777 5777 5780 5783 5783 5785 5788 5788 5787 5787 5784 5782 5782 5783 5782 5781
5806 5806 5806 5807 5807 5807 5807 5808 5808 5808 5808 5809 5808 5808 5807 5806 5805 5805 5803 5804 5805 5805 5804 5805 5804 5803 5805 5805 5804 5803 5801 5804 5809 5810 5810 5810 5809 5807 5805 5803 5801 5801 5800 5798 5798 5799 5794 5790 5797 5803 5800 5795 5793 5793 5792 5790 5789 5787 5787 5785 5782 5783 5782 5781 5783 5784 5781 5774 5770 5770 5765 5765 5770 5771 5774 5778 5779 5781 5781 5781 5782 5781 5778 5778 5778 5778 5778 5778
5800 5800 5801 5801 5801 5801 5801 5802 5802 5802 5803 5803 5803 5802 5802 5801 5799 5798 5797 5795 5798 5800 5800 5800 5799 5797 5798 5798 5797 5796 5796 5800 5803 5803 5803 5802 5802 5801 5798 5797 5797 5795 5793 5794 5796 5793 5786 5787 5795 5795 5790 5789 5788 5788 5786 5785 5784 5783 5784 5781 5778 5781 5779 5774 5776 5777 5775 5770 5766 5766 5760 5756 5761 5765 5768 5773 5776 5778 5777 5775 5774 5775 5775 5775 5775 5775 5774 5774
5794 5795 5794 5795 5795 5795 5795 5796 5796 5796 5796 5796 5796 5796 5796 5795 5794 5793 5791 5788 5788 5792 5796 5795 5793 5790 5791 5791 5791 5792 5792 5794 5795 5796 5796 5794 5795 5794 5793 5792 5790 5789 5790 5792 5791 5785 5781 5785 5789 5787 5785 5784 5782 5781 5781 5779 5779 5779 5778 5776 5775 5777 5775 5770 5769 5768 5766 5764 5764 5763 5754 5749 5753 5757 5762 5770 5773 5773 5773 5770 5768 5770 5771 5771 5771 5771 5769 5769
5788 5788 5788 5788 5788 5789 5789 5789 5790 5790 5790 5790 5789 5790 5790 5789 5788 5787 5786 5783 5779 5783 5788 5788 5787 5785 5785 5785 5786 5787 5787 5788 5789 5789 5788 5787 5788 5787 5787 5786 5784 5785 5787 5786 5784 5778 5777 5782 5784 5781 5779 5778 5776 5775 5775 5774 5774 5772 5771 5772 5772 5771 5769 5767 5766 5762 5758 5758 5759 5760 5752 5745 5746 5749 5756 5765 5767 5767 5767 5765 5766 5768 5768 5765 5765 5766 5765 5764
5782 5782 5782 5782 5782 5782 5782 5782 5783 5784 5784 5784 5783 5783 5783 5782 5782 5781 5781 5777 5773 5776 5777 5777 5780 5781 5781 5782 5782 5781 5781 5782 5783 5782 5781 5781 5781 5780 5780 5779 5779 5781 5781 5779 5776 5771 5773 5780 5779 5775 5774 5772 5770 5769 5771 5771 5768 5764 5764 5767 5767 5764 5763 5762 5761 5758 5754 5753 5753 5752 5749 5743 5741 5744 5751 5756 5757 5757 5759 5761 5764 5766 5765 5761 5759 5760 5760 5759
5776 5776 5776 5776 5776 5776 5776 5776 5776 5777 5777 5777 5776 5777 5776 5776 5776 5776 5776 5772 5768 5769 5767 5765 5769 5774 5777 5778 5777 5777 5776 5776 5777 5776 5776 5775 5774 5774 5773 5773 5774 5774 5774 5772 5768 5766 5770 5774 5772 5770 5769 5766 5764 5766 5768 5765 5760 5759 5760 5761 5760 5758 5757 5757 5756 5754 5751 5750 5747 5745 5743 5741 5739 5740 5744 5745 5745 5745 5749 5755 5759 5760 5761 5759 5756 5754 5755 5755
5769 5769 5769 5769 5769 5769 5770 5770 5769 5770 5770 5770 5770 5770 5769 5770 5770 5770 5770 5766 5762 5762 5760 5758 5761 5766 5770 5770 5770 5771 5770 5770 5771 5770 5770 5769 5768 5768 5767 5768 5768 5767 5767 5765 5762 5763 5765 5765 5765 5764 5762 5761 5761 5763 5762 5758 5755 5756 5756 5753 5752 5752 5752 5752 5750 5749 5746 5745 5742 5739 5739 5740 5739 5739 5737 5734 5734 5735 5740 5748 5753 5752 5753 5755 5755 5750 5748 5750
5762 5762 5762 5762 5762 5763 5763 5762 5762 5762 5763 5763 5763 5762 5763 5763 5763 5765 5764 5760 5756 5755 5755 5756 5756 5757 5760 5761 5762 5764 5764 5763 5764 5763 5763 5762 5761 5761 5761 5761 5761 5760 5761 5758 5758 5759 5758 5758 5758 5756 5756 5757 5758 5756 5754 5752 5751 5751 5750 5748 5747 5746 5746 5746 5744 5743 5741 5739 5736 5735 5736 5737 5737 5737 5733 5728 5727 5728 5731 5739 5745 5745 5744 5746 5750 5749 5744 5742
5755 5755 5755 5754 5756 5757 5757 5756 5755 5756 5757 5756 5755 5755 5756 5756 5758 5758 5754 5752 5751 5750 5752 5754 5751 5749 5751 5752 5753 5755 5755 5756 5757 5757 5756 5754 5754 5753 5753 5754 5753 5753 5754 5752 5753 5755 5753 5752 5751 5750 5750 5751 5751 5749 5748 5748 5746 5745 5745 5743 5741 5739 5739 5738 5736 5736 5733 5732 5733 5733 5734 5735 5732 5729 5728 5725 5724 5722 5724 5730 5734 5736 5736 5736 5740 5743 5741 5737
5749 5749 5748 5748 5749 5750 5751 5751 5749 5750 5750 5749 5749 5750 5750 5749 5751 5749 5745 5746 5746 5746 5749 5749 5744 5744 5745 5744 5745 5745 5745 5746 5748 5749 5748 5748 5748 5747 5746 5746 5744 5744 5745 5746 5747 5749 5748 5746 5745 5745 5745 5744 5743 5742 5743 5742 5741 5740 5739 5737 5734 5733 5732 5729 5728 5728 5725 5726 5731 5729 5729 5731 5726 5722 5724 5725 5721 5718 5719 5723 5724 5725 5728 5728 5729 5732 5735 5733
5743 5742 5742 5742 5743 5744 5745 5745 5744 5744 5744 5743 5743 5743 5743 5741 5741 5741 5741 5742 5739 5738 5745 5744 5740 5739 5738 5737 5738 5737 5737 5737 5737 5738 5738 5739 5740 5741 5741 5740 5738 5736 5737 5739 5739 5740 5740 5740 5739 5739 5738 5739 5737 5735 5735 5735 5735 5733 5732 5730 5727 5725 5725 5721 5720 5720 5719 5723 5727 5724 5721 5720 5719 5719 5721 5722 5721 5718 5717 5716 5716 5717 5718 5720 5721 5721 5722 5723
5736 5736 5736 5736 5737 5738 5738 5738 5739 5738 5738 5738 5736 5736 5735 5731 5732 5736 5737 5736 5731 5731 5737 5737 5733 5733 5731 5731 5732 5730 5730 5730 5728 5728 5728 5729 5731 5733 5735 5733 5733 5730 5729 5732 5731 5730 5732 5733 5734 5732 5732 5733 5730 5727 5727 5727 5727 5725 5724 5723 5719 5718 5715 5710 5712 5713 5712 5717 5720 5717 5713 5709 5711 5715 5715 5716 5719 5718 5715 5713 5712 5711 5710 5712 5714 5712 5709 5709
5729 5729 5729 5730 5731 5731 5730 5731 5731 5731 5730 5730 5729 5727 5725 5722 5726 5731 5730 5729 5727 5725 5728 5728 5726 5726 5725 5725 5724 5723 5723 5722 5721 5721 5720 5720 5721 5723 5725 5726 5725 5724 5723 5723 5722 5723 5722 5725 5730 5726 5723 5724 5723 5721 5719 5718 5718 5717 5718 5715 5710 5711 5707 5701 5704 5705 5703 5707 5708 5707 5702 5699 5705 5711 5710 5711 5712 5712 5710 5708 5708 5706 5706 5707 5707 5704 5701 5699
5721 5721 5722 5723 5723 5723 5723 5722 5723 5723 5721 5721 5720 5717 5715 5717 5721 5725 5724 5723 5720 5718 5720 5721 5720 5719 5717 5718 5717 5716 5716 5713 5713 5713 5711 5712 5713 5714 5716 5717 5717 5717 5715 5713 5714 5715 5711 5714 5722 5718 5713 5716 5717 5715 5713 5711 5710 5710 5711 5706 5703 5706 5702 5695 5694 5695 5695 5692 5693 5696 5691 5690 5699 5704 5705 5706 5705 5705 5703 5700 5701 5699 5699 5701 5699 5695 5693 5692
5712 5713 5714 5715 5715 5715 5714 5714 5715 5714 5712 5711 5707 5704 5708 5713 5715 5716 5716 5716 5714 5712 5713 5713 5714 5713 5711 5711 5711 5711 5709 5707 5705 5703 5702 5703 5704 5706 5709 5710 5710 5709 5708 5705 5704 5704 5701 5703 5711 5711 5706 5707 5707 5706 5705 5703 5702 5702 5701 5701 5700 5699 5695 5689 5683 5686 5686 5676 5677 5686 5683 5684 5690 5692 5700 5703 5699 5700 5698 5694 5694 5692 5691 5691 5688 5686 5685 5685
5703 5703 5705 5707 5707 5705 5704 5705 5705 5704 5703 5700 5695 5696 5703 5707 5707 5708 5707 5708 5708 5705 5704 5704 5705 5706 5705 5704 5705 5705 5702 5700 5699 5696 5695 5694 5693 5697 5701 5702 5702 5702 5701 5699 5694 5693 5690 5690 5698 5702 5699 5696 5695 5695 5696 5696 5694 5690 5691 5694 5694 5689 5686 5684 5675 5673 5675 5664 5663 5671 5674 5678 5681 5681 5693 5698 5694 5696 5694 5689 5687 5684 5683 5682 5679 5679 5678 5676
5694 5694 5696 5699 5699 5696 5696 5695 5694 5694 5692 5688 5685 5689 5696 5698 5700 5701 5700 5700 5699 5696 5695 5694 5694 5696 5696 5696 5698 5698 5695 5693 5691 5689 5688 5687 5686 5689 5693 5693 5693 5693 5693 5690 5686 5684 5682 5677 5681 5690 5690 5684 5683 5686 5687 5688 5684 5680 5681 5683 5683 5678 5676 5676 5669 5663 5663 5655 5652 5656 5659 5665 5671 5677 5687 5690 5689 5689 5685 5681 5678 5675 5675 5673 5672 5672 5671 5670
5685 5684 5687 5692 5689 5686 5687 5685 5685 5685 5680 5677 5677 5682 5687 5689 5692 5694 5692 5691 5690 5687 5685 5685 5686 5685 5684 5687 5689 5689 5687 5685 5684 5682 5681 5680 5680 5683 5685 5684 5685 5686 5685 5683 5678 5676 5674 5668 5665 5676 5682 5675 5673 5677 5679 5679 5676 5673 5672 5671 5671 5669 5667 5665 5661 5657 5655 5648 5643 5644 5643 5648 5661 5674 5681 5682 5684 5680 5674 5672 5670 5668 5668 5667 5665 5664 5663 5663
5676 5675 5679 5684 5679 5677 5678 5675 5674 5673 5668 5668 5672 5675 5677 5680 5681 5684 5685 5682 5680 5677 5676 5676 5676 5674 5674 5677 5678 5678 5678 5676 5676 5675 5673 5672 5673 5676 5678 5679 5679 5680 5679 5675 5671 5669 5667 5661 5656 5662 5669 5666 5666 5672 5673 5672 5670 5665 5663 5663 5663 5662 5660 5655 5650 5651 5651 5642 5636 5634 5628 5632 5653 5668 5672 5675 5678 5672 5666 5665 5662 5661 5662 5660 5659 5658 5656 5656
5667 5666 5671 5674 5669 5668 5669 5663 5662 5664 5660 5661 5665 5667 5668 5669 5672 5676 5676 5672 5668 5667 5666 5665 5665 5665 5665 5667 5669 5670 5668 5665 5666 5665 5662 5663 5666 5666 5671 5675 5674 5674 5672 5666 5664 5663 5659 5652 5647 5648 5652 5654 5658 5667 5667 5663 5662 5659 5654 5654 5656 5657 5655 5646 5637 5641 5645 5635 5630 5626 5615 5617 5640 5659 5664 5667 5669 5664 5660 5658 5655 5655 5655 5653 5652 5651 5649 5649
5658 5659 5661 5663 5659 5658 5657 5652 5652 5655 5651 5653 5659 5660 5659 5660 5664 5667 5665 5662 5658 5656 5655 5655 5656 5658 5657 5657 5659 5660 5657 5653 5654 5655 5652 5654 5657 5657 5663 5669 5666 5664 5662 5657 5655 5656 5651 5643 5636 5636 5640 5642 5646 5654 5656 5651 5651 5650 5645 5645 5649 5649 5647 5638 5627 5631 5634 5624 5622 5619 5603 5602 5628 5652 5659 5659 5660 5658 5653 5651 5649 5648 5647 5644 5643 5642 5641 5640
5649 5651 5651 5651 5650 5648 5644 5641 5645 5646 5643 5647 5652 5651 5649 5650 5653 5657 5657 5654 5649 5646 5646 5645 5646 5647 5647 5648 5649 5648 5646 5642 5642 5645 5645 5645 5648 5651 5656 5659 5656 5653 5649 5646 5646 5647 5640 5633 5627 5625 5627 5631 5633 5639 5642 5642 5641 5637 5635 5640 5640 5635 5636 5630 5621 5622 5618 5611 5614 5609 5591 5594 5619 5640 5646 5648 5650 5651 5649 5646 5643 5640 5639 5637 5635 5633 5631 5630
5639 5641 5641 5640 5640 5638 5633 5633 5637 5637 5636 5639 5640 5639 5640 5640 5642 5648 5649 5645 5640 5638 5637 5637 5637 5637 5637 5638 5637 5636 5636 5632 5629 5635 5637 5635 5637 5644 5648 5646 5644 5641 5638 5636 5637 5635 5627 5624 5622 5617 5614 5617 5620 5625 5629 5633 5633 5626 5624 5630 5628 5624 5625 5619 5614 5612 5602 5600 5608 5598 5581 5590 5611 5622 5629 5634 5638 5642 5643 5640 5635 5632 5631 5628 5624 5623 5620 5617
5628 5630 5631 5630 5629 5626 5624 5627 5629 5626 5626 5629 5628 5629 5631 5630 5633 5639 5639 5634 5631 5630 5628 5627 5627 5627 5627 5627 5626 5625 5626 5623 5619 5621 5625 5626 5628 5633 5636 5634 5633 5632 5629 5627 5627 5623 5616 5615 5616 5610 5604 5604 5607 5612 5618 5622 5621 5615 5613 5617 5617 5617 5615 5609 5606 5600 5589 5592 5598 5587 5577 5586 5599 5604 5611 5620 5624 5626 5631 5630 5625 5621 5619 5617 5613 5609 5605 5602
5619 5620 5620 5620 5617 5616 5617 5620 5618 5615 5617 5619 5616 5618 5621 5621 5624 5628 5626 5623 5622 5621 5618 5616 5617 5617 5617 5617 5616 5614 5615 5616 5612 5609 5612 5616 5618 5621 5622 5623 5624 5622 5620 5619 5618 5614 5606 5604 5606 5602 5597 5596 5598 5603 5609 5609 5604 5601 5602 5605 5607 5608 5606 5601 5595 5588 5585 5585 5581 5578 5580 5580 5584 5592 5598 5604 5609 5611 5615 5618 5613 5608 5606 5603 5598 5591 5588 5588
5609 5610 5611 5609 5606 5607 5609 5610 5607 5605 5608 5608 5605 5606 5611 5614 5614 5615 5614 5613 5613 5612 5609 5606 5607 5608 5606 5607 5606 5602 5604 5607 5603 5601 5602 5603 5605 5609 5612 5613 5611 5610 5612 5611 5608 5605 5596 5591 5596 5595 5590 5590 5592 5594 5598 5597 5591 5590 5591 5592 5595 5597 5597 5592 5583 5580 5585 5576 5563 5572 5581 5572 5571 5582 5586 5588 5595 5597 5600 5602 5601 5596 5591 5584 5579 5576 5577 5579
5599 5600 5600 5597 5596 5599 5601 5600 5599 5597 5598 5597 5595 5596 5601 5604 5603 5603 5604 5603 5602 5603 5600 5597 5598 5598 5596 5596 5595 5592 5593 5595 5594 5593 5593 5592 5592 5596 5601 5604 5600 5598 5602 5601 5598 5596 5587 5580 5587 5588 5581 5583 5585 5584 5587 5586 5581 5582 5583 5582 5584 5586 5585 5581 5575 5575 5577 5565 5556 5567 5573 5563 5564 5574 5575 5577 5581 5582 5584 5586 5585 5580 5572 5567 5567 5568 5569 5570
5590 5590 5589 5587 5588 5592 5591 5589 5591 5589 5588 5588 5586 5587 5591 5593 5593 5592 5592 5591 5590 5592 5592 5589 5587 5588 5588 5588 5586 5583 5583 5583 5582 5583 5584 5583 5582 5582 5585 5590 5590 5588 5590 5589 5588 5587 5578 5572 5578 5579 5572 5572 5575 5575 5576 5575 5571 5572 5573 5574 5576 5575 5573 5570 5566 5568 5567 5558 5557 5562 5558 5555 5561 5565 5565 5566 5566 5566 5569 5571 5569 5564 5559 5560 5562 5560 5559 5559
5580 5580 5580 5578 5579 5583 5581 5579 5581 5580 5579 5579 5577 5579 5583 5583 5582 5582 5581 5580 5580 5582 5583 5580 5577 5577 5578 5578 5576 5574 5573 5573 5572 5573 5574 5573 5573 5572 5572 5574 5578 5579 5578 5578 5577 5577 5571 5565 5568 5568 5561 5559 5564 5566 5565 5564 5562 5560 5561 5565 5566 5563 5562 5560 5558 5559 5559 5553 5553 5553 5545 5544 5551 5552 5551 5553 5553 5555 5557 5557 5555 5553 5552 5553 5553 5551 5551 5550
5571 5570 5571 5570 5571 5573 5572 5570 5571 5570 5570 5572 5570 5569 5572 5573 5571 5571 5571 5571 5571 5570 5571 5570 5568 5567 5567 5567 5567 5564 5562 5564 5563 5563 5564 5563 5563 5565 5564 5564 5568 5570 5569 5570 5568 5566 5564 5559 5559 5560 5551 5548 5556 5556 5552 5553 5551 5546 5548 5553 5556 5554 5551 5549 5550 5551 5549 5543 5542 5541 5535 5532 5537 5541 5542 5543 5543 5543 5544 5544 5543 5543 5543 5544 5544 5543 5543 5541
5562 5561 5562 5562 5562 5564 5564 5562 5562 5560 5561 5565 5563 5559 5562 5563 5561 5560 5561 5561 5561 5560 5561 5561 5559 5558 5557 5556 5556 5554 5552 5553 5552 5552 5553 5553 5553 5556 5556 5557 5559 5560 5560 5562 5560 5558 5557 5551 5549 5550 5540 5537 5547 5548 5544 5543 5536 5532 5539 5544 5544 5543 5540 5538 5540 5540 5538 5535 5531 5528 5524 5522 5525 5530 5533 5534 5533 5531 5531 5532 5532 5533 5535 5535 5534 5534 5533 5531